Time,TemperatureF,DewpointF,PressureIn,WindDirection,WindDirectionDegrees,WindSpeedMPH,WindSpeedGustMPH,Humidity,HourlyPrecipIn,Conditions,Clouds,dailyrainin,SoftwareType,DateUTC
2013-04-18 00:03:00,33.6,30.4,29.99,North,360,2.0,6.0,88,0.01,,,0.00,VWS V14.01,2013-04-18 05:03:00,
2013-04-18 00:08:00,33.5,30.3,29.98,NNE,15,7.0,13.0,88,0.01,,,0.00,VWS V14.01,2013-04-18 05:08:00,
2013-04-18 00:13:00,33.5,30.6,29.98,North,355,6.0,13.0,89,0.01,,,0.00,VWS V14.01,2013-04-18 05:13:00,
2013-04-18 00:18:00,33.5,30.6,29.98,NW,316,6.0,13.0,89,0.01,,,0.00,VWS V14.01,2013-04-18 05:18:00,
2013-04-18 00:24:00,33.4,30.5,29.98,NNE,17,6.0,13.0,89,0.01,,,0.00,VWS V14.01,2013-04-18 05:24:00,
2013-04-18 00:29:00,33.3,30.4,29.97,NNE,13,4.0,13.0,89,0.01,,,0.00,VWS V14.01,2013-04-18 05:29:00,
2013-04-18 00:34:00,33.2,30.3,29.97,North,356,7.0,11.0,89,0.00,,,0.00,VWS V14.01,2013-04-18 05:34:00,
2013-04-18 00:39:00,33.2,30.3,29.97,North,11,4.0,11.0,89,0.00,,,0.00,VWS V14.01,2013-04-18 05:39:00,
2013-04-18 00:44:00,33.1,30.2,29.96,NNW,343,3.0,11.0,89,0.00,,,0.00,VWS V14.01,2013-04-18 05:44:00,
2013-04-18 00:50:00,33.0,30.1,29.96,North,11,11.0,12.0,89,0.00,,,0.00,VWS V14.01,2013-04-18 05:50:00,
2013-04-18 00:55:00,33.0,30.1,29.96,NW,326,6.0,13.0,89,0.00,,,0.00,VWS V14.01,2013-04-18 05:55:00,
2013-04-18 01:00:00,33.0,30.1,29.95,NNW,338,5.0,13.0,89,0.00,,,0.00,VWS V14.01,2013-04-18 06:00:00,
2013-04-18 01:05:00,33.0,30.1,29.95,NNW,340,5.0,15.0,89,0.00,,,0.00,VWS V14.01,2013-04-18 06:05:00,
2013-04-18 01:10:00,32.9,30.0,29.94,North,6,4.0,15.0,89,0.00,,,0.00,VWS V14.01,2013-04-18 06:10:00,
2013-04-18 01:15:00,32.9,30.0,29.94,NNE,13,5.0,15.0,89,0.00,,,0.00,VWS V14.01,2013-04-18 06:15:00,
2013-04-18 01:21:00,32.9,30.0,29.93,North,349,6.0,15.0,89,0.00,,,0.00,VWS V14.01,2013-04-18 06:21:00,
2013-04-18 01:26:00,32.8,29.9,29.93,North,354,9.0,15.0,89,0.00,,,0.00,VWS V14.01,2013-04-18 06:26:00,
2013-04-18 01:31:00,32.8,29.9,29.92,NNW,338,6.0,12.0,89,0.00,,,0.00,VWS V14.01,2013-04-18 06:31:00,
2013-04-18 01:36:00,32.8,29.9,29.92,North,350,10.0,16.0,89,0.00,,,0.00,VWS V14.01,2013-04-18 06:36:00,
2013-04-18 01:42:00,32.8,29.9,29.91,North,353,5.0,16.0,89,0.00,,,0.00,VWS V14.01,2013-04-18 06:42:00,
2013-04-18 01:47:00,32.7,29.8,29.90,NNW,333,6.0,16.0,89,0.00,,,0.00,VWS V14.01,2013-04-18 06:47:00,
2013-04-18 01:52:00,32.8,29.9,29.90,NNW,345,14.0,18.0,89,0.00,,,0.00,VWS V14.01,2013-04-18 06:52:00,
2013-04-18 01:57:00,32.8,29.9,29.90,North,2,9.0,18.0,89,0.00,,,0.00,VWS V14.01,2013-04-18 06:57:00,
2013-04-18 02:02:00,32.7,29.8,29.89,North,357,14.0,17.0,89,0.00,,,0.00,VWS V14.01,2013-04-18 07:02:00,
2013-04-18 02:08:00,32.7,29.8,29.88,North,356,6.0,17.0,89,0.00,,,0.00,VWS V14.01,2013-04-18 07:08:00,
2013-04-18 02:13:00,32.7,29.8,29.88,NNW,332,8.0,17.0,89,0.00,,,0.00,VWS V14.01,2013-04-18 07:13:00,
2013-04-18 02:18:00,32.7,29.8,29.88,NW,306,7.0,18.0,89,0.00,,,0.00,VWS V14.01,2013-04-18 07:18:00,
2013-04-18 02:23:00,32.7,29.8,29.88,NNE,18,13.0,18.0,89,0.00,,,0.00,VWS V14.01,2013-04-18 07:23:00,
2013-04-18 02:28:00,32.7,29.8,29.88,North,2,15.0,18.0,89,0.00,,,0.00,VWS V14.01,2013-04-18 07:28:00,
2013-04-18 02:34:00,32.7,29.8,29.87,NW,314,11.0,15.0,89,0.00,,,0.00,VWS V14.01,2013-04-18 07:34:00,
2013-04-18 02:39:00,32.7,29.8,29.87,North,350,9.0,15.0,89,0.00,,,0.00,VWS V14.01,2013-04-18 07:39:00,
2013-04-18 02:44:00,32.7,29.5,29.87,North,9,3.0,15.0,88,0.00,,,0.00,VWS V14.01,2013-04-18 07:44:00,
2013-04-18 02:50:00,32.7,29.5,29.88,North,350,9.0,17.0,88,0.00,,,0.00,VWS V14.01,2013-04-18 07:50:00,
2013-04-18 02:55:00,32.7,29.5,29.87,North,352,9.0,17.0,88,0.00,,,0.00,VWS V14.01,2013-04-18 07:55:00,
2013-04-18 03:00:00,32.7,29.5,29.88,North,350,6.0,17.0,88,0.00,,,0.00,VWS V14.01,2013-04-18 08:00:00,
2013-04-18 03:05:00,32.7,29.5,29.89,NNW,335,9.0,14.0,88,0.00,,,0.00,VWS V14.01,2013-04-18 08:05:00,
2013-04-18 03:10:00,32.7,29.5,29.89,North,2,2.0,14.0,88,0.00,,,0.00,VWS V14.01,2013-04-18 08:10:00,
2013-04-18 03:16:00,32.8,29.6,29.88,North,6,8.0,15.0,88,0.00,,,0.00,VWS V14.01,2013-04-18 08:16:00,
2013-04-18 03:21:00,32.8,29.6,29.88,North,359,13.0,15.0,88,0.00,,,0.00,VWS V14.01,2013-04-18 08:21:00,
2013-04-18 03:26:00,32.8,29.4,29.89,North,350,12.0,15.0,87,0.00,,,0.00,VWS V14.01,2013-04-18 08:26:00,
2013-04-18 03:32:00,32.8,29.4,29.89,North,360,4.0,11.0,87,0.00,,,0.00,VWS V14.01,2013-04-18 08:32:00,
2013-04-18 03:37:00,32.8,29.4,29.88,NNE,17,5.0,15.0,87,0.00,,,0.00,VWS V14.01,2013-04-18 08:37:00,
2013-04-18 03:42:00,32.8,29.4,29.88,North,358,7.0,16.0,87,0.00,,,0.00,VWS V14.01,2013-04-18 08:42:00,
2013-04-18 03:47:00,32.7,29.3,29.87,NNW,344,8.0,16.0,87,0.00,,,0.00,VWS V14.01,2013-04-18 08:47:00,
2013-04-18 03:52:00,32.7,29.3,29.86,North,354,6.0,16.0,87,0.00,,,0.00,VWS V14.01,2013-04-18 08:52:00,
2013-04-18 03:58:00,32.7,29.3,29.88,NNW,347,6.0,16.0,87,0.00,,,0.00,VWS V14.01,2013-04-18 08:58:00,
2013-04-18 04:03:00,32.6,29.2,29.87,North,4,11.0,12.0,87,0.00,,,0.00,VWS V14.01,2013-04-18 09:03:00,
2013-04-18 04:08:00,32.6,29.2,29.88,North,358,11.0,13.0,87,0.00,,,0.00,VWS V14.01,2013-04-18 09:08:00,
2013-04-18 04:13:00,32.6,29.2,29.88,NNW,341,4.0,13.0,87,0.00,,,0.00,VWS V14.01,2013-04-18 09:13:00,
2013-04-18 04:19:00,32.5,29.1,29.88,NW,316,10.0,13.0,87,0.00,,,0.00,VWS V14.01,2013-04-18 09:19:00,
2013-04-18 04:24:00,32.5,29.1,29.88,NNW,327,8.0,13.0,87,0.00,,,0.00,VWS V14.01,2013-04-18 09:24:00,
2013-04-18 04:29:00,32.4,29.0,29.88,NNW,331,3.0,13.0,87,0.00,,,0.00,VWS V14.01,2013-04-18 09:29:00,
2013-04-18 04:34:00,32.4,29.2,29.88,NNW,346,3.0,7.0,88,0.00,,,0.00,VWS V14.01,2013-04-18 09:34:00,
2013-04-18 04:39:00,32.3,29.1,29.89,NW,319,4.0,8.0,88,0.00,,,0.00,VWS V14.01,2013-04-18 09:39:00,
2013-04-18 04:44:00,32.2,29.0,29.89,NW,315,3.0,10.0,88,0.00,,,0.00,VWS V14.01,2013-04-18 09:44:00,
2013-04-18 04:49:00,32.2,29.0,29.89,NNW,334,7.0,10.0,88,0.00,,,0.00,VWS V14.01,2013-04-18 09:49:00,
2013-04-18 04:55:00,32.1,29.0,29.88,NNW,339,5.0,13.0,88,0.00,,,0.00,VWS V14.01,2013-04-18 09:55:00,
2013-04-18 05:00:00,32.1,29.0,29.87,NNW,332,10.0,13.0,88,0.00,,,0.00,VWS V14.01,2013-04-18 10:00:00,
2013-04-18 05:05:00,32.0,29.1,29.87,NNE,23,2.0,9.0,89,0.00,,,0.00,VWS V14.01,2013-04-18 10:05:00,
2013-04-18 05:10:00,32.0,29.1,29.87,North,7,4.0,13.0,89,0.00,,,0.00,VWS V14.01,2013-04-18 10:10:00,
2013-04-18 05:15:00,32.0,30.7,29.87,NW,308,5.0,13.0,95,0.00,,,0.00,VWS V14.01,2013-04-18 10:15:00,
2013-04-18 05:20:00,32.0,29.1,29.86,North,360,10.0,13.0,89,0.00,,,0.00,VWS V14.01,2013-04-18 10:20:00,
2013-04-18 05:26:00,31.9,29.0,29.84,North,4,10.0,14.0,89,0.00,,,0.00,VWS V14.01,2013-04-18 10:26:00,
2013-04-18 05:31:00,31.8,28.9,29.84,NNW,344,10.0,10.0,89,0.00,,,0.00,VWS V14.01,2013-04-18 10:31:00,
2013-04-18 05:36:00,31.8,28.9,29.85,NNW,345,7.0,14.0,89,0.00,,,0.00,VWS V14.01,2013-04-18 10:36:00,
2013-04-18 05:41:00,31.8,28.9,29.86,NNW,331,3.0,15.0,89,0.00,,,0.00,VWS V14.01,2013-04-18 10:41:00,
2013-04-18 05:46:00,31.8,28.9,29.86,NNW,335,4.0,15.0,89,0.00,,,0.00,VWS V14.01,2013-04-18 10:46:00,
2013-04-18 05:51:00,31.7,28.8,29.85,NW,316,9.0,15.0,89,0.00,,,0.00,VWS V14.01,2013-04-18 10:51:00,
2013-04-18 05:57:00,31.7,28.8,29.83,NNE,20,8.0,15.0,89,0.00,,,0.00,VWS V14.01,2013-04-18 10:57:00,
2013-04-18 06:02:00,31.7,28.6,29.82,NNW,345,7.0,12.0,88,0.00,,,0.00,VWS V14.01,2013-04-18 11:02:00,
2013-04-18 06:07:00,31.7,28.8,29.83,NW,325,10.0,14.0,89,0.00,,,0.00,VWS V14.01,2013-04-18 11:07:00,
2013-04-18 06:12:00,31.7,28.8,29.81,NNW,348,12.0,14.0,89,0.00,,,0.00,VWS V14.01,2013-04-18 11:12:00,
2013-04-18 06:17:00,31.7,28.8,29.81,NW,323,14.0,20.0,89,0.00,,,0.00,VWS V14.01,2013-04-18 11:17:00,
2013-04-18 06:23:00,31.7,28.8,29.81,North,3,9.0,20.0,89,0.00,,,0.00,VWS V14.01,2013-04-18 11:23:00,
2013-04-18 06:28:00,31.7,28.6,29.81,North,10,5.0,20.0,88,0.00,,,0.00,VWS V14.01,2013-04-18 11:28:00,
2013-04-18 06:33:00,31.7,28.6,29.81,NNW,329,12.0,16.0,88,0.00,,,0.00,VWS V14.01,2013-04-18 11:33:00,
2013-04-18 06:38:00,31.7,28.6,29.81,NNW,348,6.0,16.0,88,0.00,,,0.00,VWS V14.01,2013-04-18 11:38:00,
2013-04-18 06:44:00,31.7,28.6,29.80,NNW,346,12.0,17.0,88,0.00,,,0.00,VWS V14.01,2013-04-18 11:44:00,
2013-04-18 06:49:00,31.7,28.6,29.80,NNE,13,9.0,17.0,88,0.00,,,0.00,VWS V14.01,2013-04-18 11:49:00,
2013-04-18 06:54:00,31.7,28.6,29.80,NNW,347,7.0,18.0,88,0.00,,,0.00,VWS V14.01,2013-04-18 11:54:00,
2013-04-18 06:59:00,31.7,28.6,29.80,NW,305,10.0,18.0,88,0.00,,,0.00,VWS V14.01,2013-04-18 11:59:00,
2013-04-18 07:04:00,31.9,28.5,29.81,North,2,9.0,16.0,87,0.00,,,0.00,VWS V14.01,2013-04-18 12:04:00,
2013-04-18 07:10:00,31.9,28.5,29.82,NNW,347,5.0,16.0,87,0.00,,,0.00,VWS V14.01,2013-04-18 12:10:00,
2013-04-18 07:15:00,32.0,28.6,29.81,NNW,335,14.0,16.0,87,0.00,,,0.00,VWS V14.01,2013-04-18 12:15:00,
2013-04-18 07:20:00,32.0,28.6,29.80,NNE,19,10.0,16.0,87,0.00,,,0.00,VWS V14.01,2013-04-18 12:20:00,
2013-04-18 07:25:00,32.0,28.6,29.79,NNW,327,10.0,16.0,87,0.00,,,0.00,VWS V14.01,2013-04-18 12:25:00,
2013-04-18 07:30:00,32.0,28.6,29.80,North,1,12.0,17.0,87,0.00,,,0.00,VWS V14.01,2013-04-18 12:30:00,
2013-04-18 07:36:00,32.1,28.7,29.82,NW,322,7.0,19.0,87,0.00,,,0.00,VWS V14.01,2013-04-18 12:36:00,
2013-04-18 07:41:00,32.1,28.7,29.82,North,356,9.0,19.0,87,0.00,,,0.00,VWS V14.01,2013-04-18 12:41:00,
2013-04-18 07:46:00,32.2,28.5,29.82,NW,310,7.0,19.0,86,0.00,,,0.00,VWS V14.01,2013-04-18 12:46:00,
2013-04-18 07:51:00,32.2,28.5,29.82,North,3,13.0,19.0,86,0.00,,,0.00,VWS V14.01,2013-04-18 12:51:00,
2013-04-18 07:56:00,32.2,28.5,29.82,North,360,10.0,19.0,86,0.00,,,0.00,VWS V14.01,2013-04-18 12:56:00,
2013-04-18 08:02:00,32.3,28.6,29.81,NNW,332,9.0,13.0,86,0.00,,,0.00,VWS V14.01,2013-04-18 13:02:00,
2013-04-18 08:07:00,32.2,28.5,29.81,North,8,8.0,13.0,86,0.00,,,0.00,VWS V14.01,2013-04-18 13:07:00,
2013-04-18 08:12:00,32.2,28.5,29.80,NNW,348,11.0,18.0,86,0.00,,,0.00,VWS V14.01,2013-04-18 13:12:00,
2013-04-18 08:17:00,32.2,28.5,29.80,NNW,327,2.0,18.0,86,0.00,,,0.00,VWS V14.01,2013-04-18 13:17:00,
2013-04-18 08:22:00,32.2,28.5,29.79,North,3,6.0,18.0,86,0.00,,,0.00,VWS V14.01,2013-04-18 13:22:00,
2013-04-18 08:28:00,32.1,28.4,29.79,North,2,3.0,18.0,86,0.00,,,0.00,VWS V14.01,2013-04-18 13:28:00,
2013-04-18 08:33:00,32.1,28.4,29.78,North,7,11.0,14.0,86,0.00,,,0.00,VWS V14.01,2013-04-18 13:33:00,
2013-04-18 08:38:00,32.1,28.4,29.78,NW,308,8.0,19.0,86,0.00,,,0.00,VWS V14.01,2013-04-18 13:38:00,
2013-04-18 08:43:00,32.1,28.4,29.77,NNW,338,12.0,19.0,86,0.00,,,0.00,VWS V14.01,2013-04-18 13:43:00,
2013-04-18 08:48:00,32.1,28.7,29.77,North,5,9.0,19.0,87,0.00,,,0.00,VWS V14.01,2013-04-18 13:48:00,
2013-04-18 08:54:00,32.0,28.6,29.75,NNE,15,15.0,21.0,87,0.00,,,0.00,VWS V14.01,2013-04-18 13:54:00,
2013-04-18 08:59:00,31.9,28.5,29.74,NNE,12,10.0,21.0,87,0.00,,,0.00,VWS V14.01,2013-04-18 13:59:00,
2013-04-18 09:04:00,31.9,28.5,29.75,NW,317,10.0,18.0,87,0.00,,,0.00,VWS V14.01,2013-04-18 14:04:00,
2013-04-18 09:09:00,31.9,28.5,29.75,NW,324,13.0,18.0,87,0.00,,,0.00,VWS V14.01,2013-04-18 14:09:00,
2013-04-18 09:14:00,31.9,28.8,29.74,North,351,15.0,20.0,88,0.00,,,0.00,VWS V14.01,2013-04-18 14:14:00,
2013-04-18 09:19:00,31.9,28.8,29.72,NNW,337,11.0,22.0,88,0.00,,,0.00,VWS V14.01,2013-04-18 14:19:00,
2013-04-18 09:24:00,31.9,28.8,29.72,NNW,345,11.0,22.0,88,0.00,,,0.00,VWS V14.01,2013-04-18 14:24:00,
2013-04-18 09:30:00,31.9,28.8,29.73,NNW,346,11.0,22.0,88,0.00,,,0.00,VWS V14.01,2013-04-18 14:30:00,
2013-04-18 09:35:00,31.9,28.8,29.73,NNW,340,5.0,21.0,88,0.00,,,0.00,VWS V14.01,2013-04-18 14:35:00,
2013-04-18 09:40:00,31.9,28.8,29.74,NNW,341,10.0,21.0,88,0.00,,,0.00,VWS V14.01,2013-04-18 14:40:00,
2013-04-18 09:45:00,31.9,28.8,29.73,NNW,345,13.0,21.0,88,0.00,,,0.00,VWS V14.01,2013-04-18 14:45:00,
2013-04-18 09:50:00,31.9,28.8,29.73,NNW,335,9.0,21.0,88,0.00,,,0.00,VWS V14.01,2013-04-18 14:50:00,
2013-04-18 09:55:00,32.0,28.9,29.74,North,355,11.0,21.0,88,0.00,,,0.00,VWS V14.01,2013-04-18 14:55:00,
2013-04-18 10:01:00,32.0,28.6,29.73,NNW,340,13.0,21.0,87,0.00,,,0.00,VWS V14.01,2013-04-18 15:01:00,
2013-04-18 10:06:00,32.0,28.6,29.73,North,8,6.0,22.0,87,0.00,,,0.00,VWS V14.01,2013-04-18 15:06:00,
2013-04-18 10:11:00,32.1,28.7,29.72,NNE,17,8.0,22.0,87,0.00,,,0.00,VWS V14.01,2013-04-18 15:11:00,
2013-04-18 10:17:00,32.1,29.0,29.71,North,359,11.0,22.0,88,0.00,,,0.00,VWS V14.01,2013-04-18 15:17:00,
2013-04-18 10:22:00,32.2,28.8,29.71,North,354,14.0,22.0,87,0.00,,,0.00,VWS V14.01,2013-04-18 15:22:00,
2013-04-18 10:27:00,32.2,28.8,29.73,North,360,6.0,22.0,87,0.00,,,0.00,VWS V14.01,2013-04-18 15:27:00,
2013-04-18 10:32:00,32.2,28.8,29.72,NNE,12,10.0,13.0,87,0.01,,,0.01,VWS V14.01,2013-04-18 15:32:00,
2013-04-18 10:37:00,32.2,28.8,29.73,NW,320,8.0,13.0,87,0.01,,,0.01,VWS V14.01,2013-04-18 15:37:00,
2013-04-18 10:43:00,32.3,28.9,29.73,NNW,339,6.0,15.0,87,0.01,,,0.01,VWS V14.01,2013-04-18 15:43:00,
2013-04-18 10:48:00,32.3,28.9,29.73,NNE,27,3.0,15.0,87,0.01,,,0.01,VWS V14.01,2013-04-18 15:48:00,
2013-04-18 10:53:00,32.3,28.9,29.73,North,350,5.0,15.0,87,0.01,,,0.01,VWS V14.01,2013-04-18 15:53:00,
2013-04-18 10:58:00,32.3,28.9,29.74,North,357,8.0,15.0,87,0.01,,,0.01,VWS V14.01,2013-04-18 15:58:00,
2013-04-18 11:03:00,32.4,29.0,29.74,NNW,334,7.0,11.0,87,0.01,,,0.01,VWS V14.01,2013-04-18 16:03:00,
2013-04-18 11:09:00,32.4,29.0,29.73,NNW,337,8.0,14.0,87,0.01,,,0.01,VWS V14.01,2013-04-18 16:09:00,
2013-04-18 11:14:00,32.3,28.9,29.72,NNE,13,3.0,17.0,87,0.01,,,0.01,VWS V14.01,2013-04-18 16:14:00,
2013-04-18 11:19:00,32.4,29.2,29.72,North,354,9.0,17.0,88,0.01,,,0.01,VWS V14.01,2013-04-18 16:19:00,
2013-04-18 11:24:00,32.3,29.1,29.71,NNW,346,4.0,17.0,88,0.01,,,0.01,VWS V14.01,2013-04-18 16:24:00,
2013-04-18 11:29:00,32.4,29.2,29.72,NW,324,6.0,17.0,88,0.01,,,0.01,VWS V14.01,2013-04-18 16:29:00,
2013-04-18 11:34:00,32.4,29.2,29.71,North,9,4.0,12.0,88,0.01,,,0.01,VWS V14.01,2013-04-18 16:34:00,
2013-04-18 11:40:00,32.3,29.1,29.72,NW,326,7.0,14.0,88,0.01,,,0.01,VWS V14.01,2013-04-18 16:40:00,
2013-04-18 11:45:00,32.3,29.4,29.73,NNW,346,4.0,14.0,89,0.01,,,0.01,VWS V14.01,2013-04-18 16:45:00,
2013-04-18 11:50:00,32.3,29.4,29.70,North,8,7.0,14.0,89,0.01,,,0.01,VWS V14.01,2013-04-18 16:50:00,
2013-04-18 11:55:00,32.3,29.4,29.69,North,354,7.0,16.0,89,0.01,,,0.01,VWS V14.01,2013-04-18 16:55:00,
2013-04-18 12:01:00,32.3,29.4,29.69,NNW,334,11.0,16.0,89,0.01,,,0.01,VWS V14.01,2013-04-18 17:01:00,
2013-04-18 12:06:00,32.3,29.4,29.70,North,354,4.0,15.0,89,0.00,,,0.01,VWS V14.01,2013-04-18 17:06:00,
2013-04-18 12:11:00,32.4,29.5,29.70,NW,325,12.0,15.0,89,0.01,,,0.02,VWS V14.01,2013-04-18 17:11:00,
2013-04-18 12:16:00,32.4,29.5,29.70,NW,310,8.0,15.0,89,0.01,,,0.02,VWS V14.01,2013-04-18 17:16:00,
2013-04-18 12:22:00,32.4,29.5,29.71,NNW,345,2.0,15.0,89,0.01,,,0.02,VWS V14.01,2013-04-18 17:22:00,
2013-04-18 12:27:00,32.4,29.5,29.70,North,3,3.0,15.0,89,0.01,,,0.02,VWS V14.01,2013-04-18 17:27:00,
2013-04-18 12:32:00,32.4,29.5,29.69,North,3,7.0,14.0,89,0.01,,,0.02,VWS V14.01,2013-04-18 17:32:00,
2013-04-18 12:37:00,32.3,29.4,29.68,NNW,341,12.0,17.0,89,0.01,,,0.02,VWS V14.01,2013-04-18 17:37:00,
2013-04-18 12:43:00,32.3,29.4,29.68,NW,323,6.0,17.0,89,0.01,,,0.02,VWS V14.01,2013-04-18 17:43:00,
2013-04-18 12:48:00,32.3,29.4,29.68,WNW,303,11.0,17.0,89,0.01,,,0.02,VWS V14.01,2013-04-18 17:48:00,
2013-04-18 12:53:00,32.3,29.4,29.70,NNW,328,11.0,17.0,89,0.01,,,0.02,VWS V14.01,2013-04-18 17:53:00,
2013-04-18 12:58:00,32.3,29.4,29.69,NNW,341,7.0,17.0,89,0.01,,,0.02,VWS V14.01,2013-04-18 17:58:00,
2013-04-18 13:04:00,32.3,29.4,29.69,NNW,348,1.0,14.0,89,0.01,,,0.02,VWS V14.01,2013-04-18 18:04:00,
2013-04-18 13:09:00,32.4,29.8,29.71,North,6,9.0,14.0,90,0.01,,,0.02,VWS V14.01,2013-04-18 18:09:00,
2013-04-18 13:15:00,32.3,29.7,29.69,North,350,6.0,15.0,90,0.01,,,0.02,VWS V14.01,2013-04-18 18:15:00,
2013-04-18 13:20:00,32.3,29.7,29.67,NNW,341,9.0,15.0,90,0.01,,,0.02,VWS V14.01,2013-04-18 18:20:00,
2013-04-18 13:25:00,32.3,29.7,29.67,North,4,12.0,17.0,90,0.01,,,0.02,VWS V14.01,2013-04-18 18:25:00,
2013-04-18 13:30:00,32.2,29.6,29.66,NW,322,6.0,17.0,90,0.01,,,0.02,VWS V14.01,2013-04-18 18:30:00,
2013-04-18 13:35:00,32.2,29.6,29.65,WNW,294,14.0,15.0,90,0.00,,,0.02,VWS V14.01,2013-04-18 18:35:00,
2013-04-18 13:40:00,32.1,29.5,29.66,NW,310,8.0,15.0,90,0.00,,,0.02,VWS V14.01,2013-04-18 18:40:00,
2013-04-18 13:46:00,32.1,29.5,29.67,NW,316,0.0,15.0,90,0.00,,,0.02,VWS V14.01,2013-04-18 18:46:00,
2013-04-18 13:51:00,32.1,29.5,29.66,NNW,328,0.0,15.0,90,0.00,,,0.02,VWS V14.01,2013-04-18 18:51:00,
2013-04-18 13:56:00,32.1,29.5,29.66,NNW,337,0.0,15.0,90,0.00,,,0.02,VWS V14.01,2013-04-18 18:56:00,
2013-04-18 14:01:00,32.2,29.6,29.66,NNW,333,0.0,0.0,90,0.00,,,0.02,VWS V14.01,2013-04-18 19:01:00,
2013-04-18 14:07:00,32.2,29.6,29.66,NNW,340,0.0,0.0,90,0.00,,,0.02,VWS V14.01,2013-04-18 19:07:00,
2013-04-18 14:12:00,32.2,29.6,29.66,North,360,0.0,0.0,90,0.00,,,0.02,VWS V14.01,2013-04-18 19:12:00,
2013-04-18 14:17:00,32.2,29.6,29.66,NW,315,0.0,1.0,90,0.00,,,0.02,VWS V14.01,2013-04-18 19:17:00,
2013-04-18 14:22:00,32.2,29.6,29.65,NNW,341,0.0,1.0,90,0.00,,,0.02,VWS V14.01,2013-04-18 19:22:00,
2013-04-18 14:28:00,32.2,29.6,29.67,North,351,0.0,1.0,90,0.00,,,0.02,VWS V14.01,2013-04-18 19:28:00,
2013-04-18 14:33:00,32.1,29.5,29.65,NW,321,0.0,0.0,90,0.01,,,0.03,VWS V14.01,2013-04-18 19:33:00,
2013-04-18 14:38:00,32.1,29.5,29.65,NNW,338,0.0,0.0,90,0.01,,,0.03,VWS V14.01,2013-04-18 19:38:00,
2013-04-18 14:43:00,32.0,29.4,29.66,NNW,344,0.0,0.0,90,0.01,,,0.03,VWS V14.01,2013-04-18 19:43:00,
2013-04-18 14:49:00,32.0,29.4,29.65,NNW,329,0.0,0.0,90,0.01,,,0.03,VWS V14.01,2013-04-18 19:49:00,
2013-04-18 14:54:00,32.1,29.5,29.64,NNW,333,0.0,0.0,90,0.01,,,0.03,VWS V14.01,2013-04-18 19:54:00,
2013-04-18 14:59:00,32.1,29.5,29.63,NNW,347,0.0,0.0,90,0.01,,,0.03,VWS V14.01,2013-04-18 19:59:00,
2013-04-18 15:04:00,32.1,29.5,29.63,NNW,332,0.0,0.0,90,0.01,,,0.03,VWS V14.01,2013-04-18 20:04:00,
2013-04-18 15:09:00,32.1,29.5,29.63,NNW,343,0.0,0.0,90,0.01,,,0.03,VWS V14.01,2013-04-18 20:09:00,
2013-04-18 15:14:00,32.1,29.5,29.63,NNW,336,0.0,0.0,90,0.01,,,0.03,VWS V14.01,2013-04-18 20:14:00,
2013-04-18 15:20:00,32.1,29.5,29.63,NNW,333,0.0,0.0,90,0.01,,,0.03,VWS V14.01,2013-04-18 20:20:00,
2013-04-18 15:25:00,32.2,29.6,29.64,NNW,333,0.0,0.0,90,0.01,,,0.03,VWS V14.01,2013-04-18 20:25:00,
2013-04-18 15:30:00,32.2,29.6,29.64,NW,310,0.0,0.0,90,0.01,,,0.03,VWS V14.01,2013-04-18 20:30:00,
2013-04-18 15:35:00,32.2,29.6,29.64,NW,321,0.0,0.0,90,0.00,,,0.03,VWS V14.01,2013-04-18 20:35:00,
2013-04-18 15:41:00,32.3,29.7,29.65,NNW,337,0.0,0.0,90,0.00,,,0.03,VWS V14.01,2013-04-18 20:41:00,
2013-04-18 15:46:00,32.2,29.6,29.64,NNW,335,0.0,0.0,90,0.00,,,0.03,VWS V14.01,2013-04-18 20:46:00,
2013-04-18 15:51:00,32.3,29.7,29.64,NNW,331,0.0,0.0,90,0.00,,,0.03,VWS V14.01,2013-04-18 20:51:00,
2013-04-18 15:56:00,32.3,29.7,29.64,NNW,341,0.0,1.0,90,0.01,,,0.04,VWS V14.01,2013-04-18 20:56:00,
2013-04-18 16:02:00,32.3,29.7,29.64,NW,325,0.0,1.0,90,0.01,,,0.04,VWS V14.01,2013-04-18 21:02:00,
2013-04-18 16:07:00,32.3,29.7,29.62,NNW,339,0.0,1.0,90,0.01,,,0.04,VWS V14.01,2013-04-18 21:07:00,
2013-04-18 16:12:00,32.3,29.7,29.62,NW,321,0.0,1.0,90,0.01,,,0.04,VWS V14.01,2013-04-18 21:12:00,
2013-04-18 16:17:00,32.2,29.6,29.62,NNW,342,0.0,1.0,90,0.01,,,0.04,VWS V14.01,2013-04-18 21:17:00,
2013-04-18 16:22:00,32.2,29.6,29.63,NNW,340,0.0,1.0,90,0.01,,,0.04,VWS V14.01,2013-04-18 21:22:00,
2013-04-18 16:27:00,32.2,29.6,29.63,NW,324,0.0,1.0,90,0.01,,,0.04,VWS V14.01,2013-04-18 21:27:00,
2013-04-18 16:33:00,32.2,29.6,29.61,North,354,0.0,1.0,90,0.01,,,0.04,VWS V14.01,2013-04-18 21:33:00,
2013-04-18 16:39:00,32.2,29.9,29.62,North,351,0.0,1.0,91,0.01,,,0.04,VWS V14.01,2013-04-18 21:39:00,
2013-04-18 16:44:00,32.2,29.9,29.60,North,356,0.0,1.0,91,0.01,,,0.04,VWS V14.01,2013-04-18 21:44:00,
2013-04-18 16:49:00,32.3,30.0,29.62,NW,310,0.0,1.0,91,0.01,,,0.04,VWS V14.01,2013-04-18 21:49:00,
2013-04-18 16:54:00,32.3,30.0,29.62,NW,308,7.0,15.0,91,0.01,,,0.04,VWS V14.01,2013-04-18 21:54:00,
2013-04-18 16:59:00,32.3,30.0,29.60,NNW,348,6.0,19.0,91,0.02,,,0.05,VWS V14.01,2013-04-18 21:59:00,
2013-04-18 17:04:00,32.3,30.0,29.60,NW,315,11.0,15.0,91,0.01,,,0.05,VWS V14.01,2013-04-18 22:04:00,
2013-04-18 17:10:00,32.3,30.0,29.60,NNE,15,15.0,26.0,91,0.01,,,0.05,VWS V14.01,2013-04-18 22:10:00,
2013-04-18 17:15:00,32.3,30.0,29.59,NW,319,12.0,26.0,91,0.01,,,0.05,VWS V14.01,2013-04-18 22:15:00,
2013-04-18 17:20:00,32.3,30.0,29.61,NNW,341,14.0,26.0,91,0.01,,,0.05,VWS V14.01,2013-04-18 22:20:00,
2013-04-18 17:25:00,32.3,30.0,29.62,NNW,346,5.0,26.0,91,0.02,,,0.06,VWS V14.01,2013-04-18 22:25:00,
2013-04-18 17:30:00,32.3,30.0,29.61,North,353,7.0,26.0,91,0.02,,,0.06,VWS V14.01,2013-04-18 22:30:00,
2013-04-18 17:35:00,32.3,30.0,29.60,North,356,11.0,20.0,91,0.02,,,0.06,VWS V14.01,2013-04-18 22:35:00,
2013-04-18 17:40:00,32.4,30.1,29.60,NW,308,8.0,20.0,91,0.02,,,0.06,VWS V14.01,2013-04-18 22:40:00,
2013-04-18 17:45:00,32.4,30.1,29.60,North,357,9.0,20.0,91,0.02,,,0.06,VWS V14.01,2013-04-18 22:45:00,
2013-04-18 17:50:00,32.3,30.0,29.60,North,350,9.0,29.0,91,0.02,,,0.06,VWS V14.01,2013-04-18 22:50:00,
2013-04-18 17:55:00,32.3,30.0,29.59,NW,321,0.0,29.0,91,0.02,,,0.06,VWS V14.01,2013-04-18 22:55:00,
2013-04-18 18:01:00,32.3,30.0,29.60,WNW,303,0.0,29.0,91,0.02,,,0.06,VWS V14.01,2013-04-18 23:01:00,
2013-04-18 18:06:00,32.3,30.0,29.60,NW,320,0.0,0.0,91,0.01,,,0.06,VWS V14.01,2013-04-18 23:06:00,
2013-04-18 18:12:00,32.3,30.0,29.60,NW,319,0.0,0.0,91,0.01,,,0.06,VWS V14.01,2013-04-18 23:12:00,
2013-04-18 18:17:00,32.3,30.0,29.60,NNW,327,0.0,0.0,91,0.01,,,0.06,VWS V14.01,2013-04-18 23:17:00,
2013-04-18 18:22:00,32.3,30.0,29.60,NNW,338,0.0,0.0,91,0.01,,,0.06,VWS V14.01,2013-04-18 23:22:00,
2013-04-18 18:27:00,32.2,29.9,29.60,NW,326,0.0,0.0,91,0.01,,,0.06,VWS V14.01,2013-04-18 23:27:00,
2013-04-18 18:32:00,32.2,29.9,29.60,North,7,0.0,0.0,91,0.01,,,0.07,VWS V14.01,2013-04-18 23:32:00,
2013-04-18 18:38:00,32.1,29.8,29.61,NNW,338,0.0,0.0,91,0.01,,,0.07,VWS V14.01,2013-04-18 23:38:00,
2013-04-18 18:43:00,32.1,29.8,29.61,NW,321,0.0,0.0,91,0.01,,,0.07,VWS V14.01,2013-04-18 23:43:00,
2013-04-18 18:48:00,32.1,29.8,29.61,North,356,0.0,0.0,91,0.01,,,0.07,VWS V14.01,2013-04-18 23:48:00,
2013-04-18 18:53:00,32.1,29.8,29.61,NW,321,0.0,0.0,91,0.01,,,0.07,VWS V14.01,2013-04-18 23:53:00,
2013-04-18 18:58:00,32.1,29.8,29.61,NNW,327,0.0,0.0,91,0.01,,,0.07,VWS V14.01,2013-04-18 23:58:00,
2013-04-18 19:03:00,32.0,29.7,29.61,North,358,0.0,0.0,91,0.01,,,0.07,VWS V14.01,2013-04-19 00:03:00,
2013-04-18 19:08:00,32.0,29.7,29.61,WNW,289,0.0,0.0,91,0.01,,,0.07,VWS V14.01,2013-04-19 00:08:00,
2013-04-18 19:13:00,32.0,29.7,29.61,NW,324,0.0,0.0,91,0.02,,,0.08,VWS V14.01,2013-04-19 00:13:00,
2013-04-18 19:19:00,32.0,29.7,29.61,NNW,333,0.0,0.0,91,0.02,,,0.08,VWS V14.01,2013-04-19 00:19:00,
2013-04-18 19:24:00,32.0,29.7,29.61,NNW,348,0.0,0.0,91,0.02,,,0.08,VWS V14.01,2013-04-19 00:24:00,
2013-04-18 19:29:00,32.0,29.7,29.61,WNW,297,0.0,0.0,91,0.02,,,0.08,VWS V14.01,2013-04-19 00:29:00,
2013-04-18 19:34:00,32.0,29.7,29.61,NW,308,0.0,0.0,91,0.02,,,0.08,VWS V14.01,2013-04-19 00:34:00,
2013-04-18 19:39:00,32.0,29.7,29.62,NW,314,0.0,0.0,91,0.02,,,0.08,VWS V14.01,2013-04-19 00:39:00,
2013-04-18 19:44:00,32.0,29.7,29.62,NNW,343,0.0,0.0,91,0.02,,,0.08,VWS V14.01,2013-04-19 00:44:00,
2013-04-18 19:49:00,31.9,29.6,29.62,NW,316,0.0,0.0,91,0.02,,,0.08,VWS V14.01,2013-04-19 00:49:00,
2013-04-18 19:54:00,31.9,29.6,29.62,NNW,327,0.0,0.0,91,0.02,,,0.08,VWS V14.01,2013-04-19 00:54:00,
2013-04-18 20:00:00,31.9,29.6,29.62,NNW,333,0.0,0.0,91,0.02,,,0.08,VWS V14.01,2013-04-19 01:00:00,
2013-04-18 20:05:00,31.8,29.5,29.62,NW,315,0.0,0.0,91,0.01,,,0.08,VWS V14.01,2013-04-19 01:05:00,
2013-04-18 20:10:00,31.8,29.5,29.62,NW,321,0.0,0.0,91,0.01,,,0.08,VWS V14.01,2013-04-19 01:10:00,
2013-04-18 20:15:00,31.7,29.4,29.62,West,275,0.0,0.0,91,0.01,,,0.08,VWS V14.01,2013-04-19 01:15:00,
2013-04-18 20:20:00,31.7,29.4,29.62,North,356,0.0,0.0,91,0.01,,,0.08,VWS V14.01,2013-04-19 01:20:00,
2013-04-18 20:25:00,31.6,29.3,29.62,NNW,327,0.0,0.0,91,0.01,,,0.08,VWS V14.01,2013-04-19 01:25:00,
2013-04-18 20:30:00,31.6,29.3,29.62,NW,314,0.0,0.0,91,0.01,,,0.08,VWS V14.01,2013-04-19 01:30:00,
2013-04-18 20:36:00,31.6,29.3,29.63,NNW,328,0.0,0.0,91,0.00,,,0.08,VWS V14.01,2013-04-19 01:36:00,
2013-04-18 20:41:00,31.6,29.3,29.63,NW,321,0.0,0.0,91,0.00,,,0.08,VWS V14.01,2013-04-19 01:41:00,
2013-04-18 20:46:00,31.5,29.2,29.63,WNW,290,0.0,0.0,91,0.00,,,0.08,VWS V14.01,2013-04-19 01:46:00,
2013-04-18 20:51:00,31.5,29.2,29.63,WNW,296,0.0,0.0,91,0.00,,,0.08,VWS V14.01,2013-04-19 01:51:00,
2013-04-18 20:56:00,31.4,29.1,29.63,North,350,0.0,0.0,91,0.00,,,0.08,VWS V14.01,2013-04-19 01:56:00,
2013-04-18 21:02:00,31.3,29.0,29.63,WNW,295,0.0,0.0,91,0.00,,,0.08,VWS V14.01,2013-04-19 02:02:00,
2013-04-18 21:07:00,31.3,29.0,29.63,NW,304,0.0,0.0,91,0.00,,,0.08,VWS V14.01,2013-04-19 02:07:00,
2013-04-18 21:12:00,31.2,28.9,29.64,WNW,302,0.0,0.0,91,0.00,,,0.08,VWS V14.01,2013-04-19 02:12:00,
2013-04-18 21:17:00,31.2,28.9,29.64,NW,312,0.0,0.0,91,0.00,,,0.08,VWS V14.01,2013-04-19 02:17:00,
2013-04-18 21:22:00,31.1,28.8,29.63,NNW,329,0.0,0.0,91,0.00,,,0.08,VWS V14.01,2013-04-19 02:22:00,
2013-04-18 21:27:00,31.1,28.8,29.64,NNE,19,0.0,0.0,91,0.00,,,0.08,VWS V14.01,2013-04-19 02:27:00,
2013-04-18 21:32:00,31.1,28.8,29.64,NNW,344,0.0,0.0,91,0.00,,,0.08,VWS V14.01,2013-04-19 02:32:00,
2013-04-18 21:37:00,31.1,28.8,29.64,NW,325,0.0,0.0,91,0.00,,,0.08,VWS V14.01,2013-04-19 02:37:00,
2013-04-18 21:42:00,31.2,28.9,29.63,NW,323,0.0,0.0,91,0.00,,,0.08,VWS V14.01,2013-04-19 02:42:00,
2013-04-18 21:47:00,31.2,28.9,29.63,NW,306,0.0,0.0,91,0.00,,,0.08,VWS V14.01,2013-04-19 02:47:00,
2013-04-18 21:52:00,31.2,28.9,29.64,NW,320,0.0,0.0,91,0.00,,,0.08,VWS V14.01,2013-04-19 02:52:00,
2013-04-18 21:58:00,31.2,28.9,29.63,NNW,327,0.0,0.0,91,0.00,,,0.08,VWS V14.01,2013-04-19 02:58:00,
2013-04-18 22:03:00,31.2,28.9,29.63,NW,306,0.0,0.0,91,0.00,,,0.08,VWS V14.01,2013-04-19 03:03:00,
2013-04-18 22:08:00,31.2,28.9,29.63,NNW,345,0.0,0.0,91,0.00,,,0.08,VWS V14.01,2013-04-19 03:08:00,
2013-04-18 22:13:00,31.2,28.9,29.63,NNW,331,0.0,0.0,91,0.00,,,0.08,VWS V14.01,2013-04-19 03:13:00,
2013-04-18 22:18:00,31.2,28.9,29.63,NW,323,0.0,0.0,91,0.00,,,0.08,VWS V14.01,2013-04-19 03:18:00,
2013-04-18 22:23:00,31.2,28.9,29.63,NW,319,0.0,0.0,91,0.00,,,0.08,VWS V14.01,2013-04-19 03:23:00,
2013-04-18 22:28:00,31.1,28.8,29.63,NW,312,0.0,0.0,91,0.00,,,0.08,VWS V14.01,2013-04-19 03:28:00,
2013-04-18 22:33:00,31.1,28.8,29.62,NW,323,0.0,0.0,91,0.00,,,0.08,VWS V14.01,2013-04-19 03:33:00,
2013-04-18 22:38:00,31.1,28.8,29.62,NW,304,0.0,0.0,91,0.00,,,0.08,VWS V14.01,2013-04-19 03:38:00,
2013-04-18 22:44:00,31.1,28.8,29.62,NNW,328,0.0,0.0,91,0.00,,,0.08,VWS V14.01,2013-04-19 03:44:00,
2013-04-18 22:49:00,31.2,28.9,29.61,WNW,295,0.0,0.0,91,0.00,,,0.08,VWS V14.01,2013-04-19 03:49:00,
2013-04-18 22:54:00,31.2,28.9,29.61,NNW,340,0.0,0.0,91,0.00,,,0.08,VWS V14.01,2013-04-19 03:54:00,
2013-04-18 22:59:00,31.2,28.9,29.61,NNW,335,0.0,0.0,91,0.00,,,0.08,VWS V14.01,2013-04-19 03:59:00,
2013-04-18 23:01:00,31.1,28.8,29.61,NW,314,0.0,0.0,91,0.00,,,0.08,VWS V14.01,2013-04-19 04:01:00,
2013-04-18 23:02:00,31.1,28.8,29.60,NNW,335,0.0,0.0,91,0.00,,,0.08,VWS V14.01,2013-04-19 04:02:00,
2013-04-18 23:04:00,31.1,28.8,29.61,NW,304,0.0,0.0,91,0.00,,,0.08,VWS V14.01,2013-04-19 04:04:00,
2013-04-18 23:09:00,31.1,28.8,29.60,NW,321,0.0,0.0,91,0.00,,,0.08,VWS V14.01,2013-04-19 04:09:00,
2013-04-18 23:14:00,31.0,28.7,29.60,North,358,0.0,0.0,91,0.00,,,0.08,VWS V14.01,2013-04-19 04:14:00,
2013-04-18 23:19:00,31.0,28.7,29.60,WNW,286,0.0,0.0,91,0.00,,,0.08,VWS V14.01,2013-04-19 04:19:00,
2013-04-18 23:25:00,31.0,28.7,29.59,NW,312,0.0,0.0,91,0.00,,,0.08,VWS V14.01,2013-04-19 04:25:00,
2013-04-18 23:30:00,30.9,28.6,29.59,WNW,284,0.0,0.0,91,0.00,,,0.08,VWS V14.01,2013-04-19 04:30:00,
2013-04-18 23:35:00,30.9,28.6,29.59,NW,315,0.0,0.0,91,0.00,,,0.08,VWS V14.01,2013-04-19 04:35:00,
2013-04-18 23:40:00,30.9,28.6,29.59,NW,319,0.0,0.0,91,0.00,,,0.08,VWS V14.01,2013-04-19 04:40:00,
2013-04-18 23:45:00,30.9,28.6,29.59,WNW,300,0.0,0.0,91,0.00,,,0.08,VWS V14.01,2013-04-19 04:45:00,
2013-04-18 23:50:00,30.9,28.6,29.59,NW,314,0.0,0.0,91,0.00,,,0.08,VWS V14.01,2013-04-19 04:50:00,
2013-04-18 23:55:00,30.9,28.6,29.58,NW,319,0.0,0.0,91,0.00,,,0.08,VWS V14.01,2013-04-19 04:55:00,